Year,Month,Day,Hour,Minute,Value (Times are PST for windspeed in km/hr)
2012,03,14,00,00,0.10
2012,03,14,00,01,0.00
2012,03,14,00,02,0.00
2012,03,14,00,03,0.00
2012,03,14,00,04,0.00
2012,03,14,00,05,0.00
2012,03,14,00,06,0.30
2012,03,14,00,07,0.70
2012,03,14,00,08,2.10
2012,03,14,00,09,0.30
2012,03,14,00,10,0.20
2012,03,14,00,11,1.10
2012,03,14,00,12,0.00
2012,03,14,00,13,0.70
2012,03,14,00,14,2.10
2012,03,14,00,15,2.70
2012,03,14,00,16,1.80
2012,03,14,00,17,0.20
2012,03,14,00,18,0.00
2012,03,14,00,19,0.00
2012,03,14,00,20,0.10
2012,03,14,00,21,0.00
2012,03,14,00,22,0.00
2012,03,14,00,23,0.00
2012,03,14,00,24,0.00
2012,03,14,00,25,0.00
2012,03,14,00,26,0.00
2012,03,14,00,27,0.00
2012,03,14,00,28,0.00
2012,03,14,00,29,0.00
2012,03,14,00,30,0.00
2012,03,14,00,31,0.00
2012,03,14,00,32,0.00
2012,03,14,00,33,0.00
2012,03,14,00,34,0.00
2012,03,14,00,35,0.00
2012,03,14,00,36,0.00
2012,03,14,00,37,0.00
2012,03,14,00,38,0.00
2012,03,14,00,39,0.00
2012,03,14,00,40,0.20
2012,03,14,00,41,0.60
2012,03,14,00,42,0.00
2012,03,14,00,43,0.20
2012,03,14,00,44,0.10
2012,03,14,00,45,0.10
2012,03,14,00,46,1.50
2012,03,14,00,47,0.90
2012,03,14,00,48,1.90
2012,03,14,00,49,0.80
2012,03,14,00,50,0.20
2012,03,14,00,51,0.00
2012,03,14,00,52,0.20
2012,03,14,00,53,0.10
2012,03,14,00,54,0.10
2012,03,14,00,55,0.00
2012,03,14,00,56,0.00
2012,03,14,00,57,0.00
2012,03,14,00,58,0.00
2012,03,14,00,59,0.00
2012,03,14,01,00,0.00
2012,03,14,01,01,0.00
2012,03,14,01,02,0.00
2012,03,14,01,03,0.00
2012,03,14,01,04,0.00
2012,03,14,01,05,0.00
2012,03,14,01,06,0.00
2012,03,14,01,07,0.00
2012,03,14,01,08,0.00
2012,03,14,01,09,0.00
2012,03,14,01,10,0.00
2012,03,14,01,11,0.00
2012,03,14,01,12,1.10
2012,03,14,01,13,0.60
2012,03,14,01,14,0.10
2012,03,14,01,15,0.10
2012,03,14,01,16,0.00
2012,03,14,01,17,0.00
2012,03,14,01,18,0.00
2012,03,14,01,19,0.00
2012,03,14,01,20,0.10
2012,03,14,01,21,0.00
2012,03,14,01,22,0.50
2012,03,14,01,23,0.70
2012,03,14,01,24,0.60
2012,03,14,01,25,0.10
2012,03,14,01,26,0.00
2012,03,14,01,27,0.00
2012,03,14,01,28,0.20
2012,03,14,01,29,0.00
2012,03,14,01,30,0.10
2012,03,14,01,31,0.20
2012,03,14,01,32,0.30
2012,03,14,01,33,2.20
2012,03,14,01,34,0.40
2012,03,14,01,35,0.70
2012,03,14,01,36,0.10
2012,03,14,01,37,0.40
2012,03,14,01,38,0.20
2012,03,14,01,39,0.20
2012,03,14,01,40,0.10
2012,03,14,01,41,0.00
2012,03,14,01,42,0.00
2012,03,14,01,43,0.00
2012,03,14,01,44,0.80
2012,03,14,01,45,1.40
2012,03,14,01,46,0.70
2012,03,14,01,47,0.00
2012,03,14,01,48,0.10
2012,03,14,01,49,1.90
2012,03,14,01,50,2.90
2012,03,14,01,51,2.50
2012,03,14,01,52,2.00
2012,03,14,01,53,2.40
2012,03,14,01,54,1.10
2012,03,14,01,55,0.40
2012,03,14,01,56,0.00
2012,03,14,01,57,0.00
2012,03,14,01,58,0.00
2012,03,14,01,59,0.00
2012,03,14,02,00,0.00
2012,03,14,02,01,0.00
2012,03,14,02,02,0.00
2012,03,14,02,03,0.00
2012,03,14,02,04,0.00
2012,03,14,02,05,0.00
2012,03,14,02,06,0.00
2012,03,14,02,07,0.60
2012,03,14,02,08,0.10
2012,03,14,02,09,0.00
2012,03,14,02,10,0.20
2012,03,14,02,11,0.30
2012,03,14,02,12,2.30
2012,03,14,02,13,0.20
2012,03,14,02,14,1.00
2012,03,14,02,15,1.00
2012,03,14,02,16,1.00
2012,03,14,02,17,0.20
2012,03,14,02,18,0.00
2012,03,14,02,19,0.00
2012,03,14,02,20,0.00
2012,03,14,02,21,0.00
2012,03,14,02,22,0.00
2012,03,14,02,23,0.00
2012,03,14,02,24,0.40
2012,03,14,02,25,0.00
2012,03,14,02,26,0.00
2012,03,14,02,27,0.00
2012,03,14,02,28,0.00
2012,03,14,02,29,0.00
2012,03,14,02,30,0.00
2012,03,14,02,31,0.00
2012,03,14,02,32,0.00
2012,03,14,02,33,0.00
2012,03,14,02,34,0.00
2012,03,14,02,35,0.00
2012,03,14,02,36,0.00
2012,03,14,02,37,0.50
2012,03,14,02,38,0.40
2012,03,14,02,39,0.30
2012,03,14,02,40,0.20
2012,03,14,02,41,0.30
2012,03,14,02,42,0.10
2012,03,14,02,43,0.10
2012,03,14,02,44,0.00
2012,03,14,02,45,0.00
2012,03,14,02,46,0.00
2012,03,14,02,47,0.00
2012,03,14,02,48,0.00
2012,03,14,02,49,0.00
2012,03,14,02,50,0.00
2012,03,14,02,51,0.00
2012,03,14,02,52,0.00
2012,03,14,02,53,0.00
2012,03,14,02,54,0.30
2012,03,14,02,55,0.00
2012,03,14,02,56,1.50
2012,03,14,02,57,0.90
2012,03,14,02,58,0.60
2012,03,14,02,59,1.10
2012,03,14,03,00,1.00
2012,03,14,03,01,0.60
2012,03,14,03,02,1.60
2012,03,14,03,03,2.30
2012,03,14,03,04,1.40
2012,03,14,03,05,0.60
2012,03,14,03,06,1.00
2012,03,14,03,07,0.00
2012,03,14,03,08,0.00
2012,03,14,03,09,0.00
2012,03,14,03,10,0.00
2012,03,14,03,11,0.10
2012,03,14,03,12,0.00
2012,03,14,03,13,0.40
2012,03,14,03,14,0.10
2012,03,14,03,15,0.10
2012,03,14,03,16,0.10
2012,03,14,03,17,0.70
2012,03,14,03,18,0.70
2012,03,14,03,19,0.60
2012,03,14,03,20,0.10
2012,03,14,03,21,0.40
2012,03,14,03,22,0.00
2012,03,14,03,23,0.00
2012,03,14,03,24,0.00
2012,03,14,03,25,0.20
2012,03,14,03,26,0.10
2012,03,14,03,27,1.50
2012,03,14,03,28,3.30
2012,03,14,03,29,3.30
2012,03,14,03,30,3.40
2012,03,14,03,31,2.70
2012,03,14,03,32,1.50
2012,03,14,03,33,0.70
2012,03,14,03,34,1.20
2012,03,14,03,35,1.50
2012,03,14,03,36,2.50
2012,03,14,03,37,2.00
2012,03,14,03,38,3.00
2012,03,14,03,39,2.00
2012,03,14,03,40,1.40
2012,03,14,03,41,0.70
2012,03,14,03,42,0.10
2012,03,14,03,43,0.40
2012,03,14,03,44,0.60
2012,03,14,03,45,2.00
2012,03,14,03,46,1.80
2012,03,14,03,47,2.40
2012,03,14,03,48,2.20
2012,03,14,03,49,2.10
2012,03,14,03,50,3.50
2012,03,14,03,51,3.30
2012,03,14,03,52,3.80
2012,03,14,03,53,3.90
2012,03,14,03,54,3.50
2012,03,14,03,55,3.50
2012,03,14,03,56,2.90
2012,03,14,03,57,1.50
2012,03,14,03,58,1.30
2012,03,14,03,59,0.10
2012,03,14,04,00,0.50
2012,03,14,04,01,0.10
2012,03,14,04,02,1.00
2012,03,14,04,03,0.00
2012,03,14,04,04,0.90
2012,03,14,04,05,2.10
2012,03,14,04,06,4.40
2012,03,14,04,07,4.70
2012,03,14,04,08,5.10
2012,03,14,04,09,4.30
2012,03,14,04,10,4.90
2012,03,14,04,11,4.70
2012,03,14,04,12,3.40
2012,03,14,04,13,2.50
2012,03,14,04,14,1.00
2012,03,14,04,15,0.70
2012,03,14,04,16,0.40
2012,03,14,04,17,0.00
2012,03,14,04,18,0.00
2012,03,14,04,19,0.00
2012,03,14,04,20,0.00
2012,03,14,04,21,0.00
2012,03,14,04,22,0.00
2012,03,14,04,23,0.00
2012,03,14,04,24,0.00
2012,03,14,04,25,0.00
2012,03,14,04,26,0.00
2012,03,14,04,27,0.00
2012,03,14,04,28,0.00
2012,03,14,04,29,0.00
2012,03,14,04,30,0.90
2012,03,14,04,31,2.20
2012,03,14,04,32,1.60
2012,03,14,04,33,0.60
2012,03,14,04,34,0.90
2012,03,14,04,35,0.00
2012,03,14,04,36,0.10
2012,03,14,04,37,0.00
2012,03,14,04,38,0.00
2012,03,14,04,39,0.00
2012,03,14,04,40,0.00
2012,03,14,04,41,0.00
2012,03,14,04,42,0.00
2012,03,14,04,43,0.00
2012,03,14,04,44,0.00
2012,03,14,04,45,0.50
2012,03,14,04,46,0.50
2012,03,14,04,47,0.20
2012,03,14,04,48,0.00
2012,03,14,04,49,0.00
2012,03,14,04,50,0.00
2012,03,14,04,51,0.00
2012,03,14,04,52,0.00
2012,03,14,04,53,0.00
2012,03,14,04,54,0.00
2012,03,14,04,55,0.00
2012,03,14,04,56,0.00
2012,03,14,04,57,0.00
2012,03,14,04,58,0.00
2012,03,14,04,59,0.00
2012,03,14,05,00,0.10
2012,03,14,05,01,1.20
2012,03,14,05,02,0.60
2012,03,14,05,03,0.00
2012,03,14,05,04,0.10
2012,03,14,05,05,0.70
2012,03,14,05,06,0.30
2012,03,14,05,07,0.60
2012,03,14,05,08,0.10
2012,03,14,05,09,0.00
2012,03,14,05,10,0.00
2012,03,14,05,11,0.00
2012,03,14,05,12,0.00
2012,03,14,05,13,0.00
2012,03,14,05,14,0.50
2012,03,14,05,15,0.00
2012,03,14,05,16,0.00
2012,03,14,05,17,0.00
2012,03,14,05,18,0.00
2012,03,14,05,19,0.40
2012,03,14,05,20,0.00
2012,03,14,05,21,0.00
2012,03,14,05,22,0.00
2012,03,14,05,23,0.00
2012,03,14,05,24,0.70
2012,03,14,05,25,0.10
2012,03,14,05,26,0.00
2012,03,14,05,27,0.00
2012,03,14,05,28,0.00
2012,03,14,05,29,0.00
2012,03,14,05,30,1.30
2012,03,14,05,31,0.00
2012,03,14,05,32,0.80
2012,03,14,05,33,0.30
2012,03,14,05,34,3.80
2012,03,14,05,35,6.30
2012,03,14,05,36,2.10
2012,03,14,05,37,6.60
2012,03,14,05,38,5.30
2012,03,14,05,39,7.20
2012,03,14,05,40,5.60
2012,03,14,05,41,1.70
2012,03,14,05,42,6.90
2012,03,14,05,43,6.20
2012,03,14,05,44,7.80
2012,03,14,05,45,9.40
2012,03,14,05,46,11.10
2012,03,14,05,47,12.70
2012,03,14,05,48,4.90
2012,03,14,05,49,15.30
2012,03,14,05,50,9.70
2012,03,14,05,51,9.10
2012,03,14,05,52,10.20
2012,03,14,05,53,16.30
2012,03,14,05,54,11.70
2012,03,14,05,55,9.40
2012,03,14,05,56,5.30
2012,03,14,05,57,4.70
2012,03,14,05,58,4.50
2012,03,14,05,59,4.70
2012,03,14,06,00,6.20
2012,03,14,06,01,4.60
2012,03,14,06,02,3.90
2012,03,14,06,03,4.10
2012,03,14,06,04,7.10
2012,03,14,06,05,13.70
2012,03,14,06,06,5.40
2012,03,14,06,07,8.20
2012,03,14,06,08,8.10
2012,03,14,06,09,15.10
2012,03,14,06,10,7.80
2012,03,14,06,11,13.50
2012,03,14,06,12,10.80
2012,03,14,06,13,12.30
2012,03,14,06,14,5.10
2012,03,14,06,15,8.70
2012,03,14,06,16,7.60
2012,03,14,06,17,6.00
2012,03,14,06,18,7.30
2012,03,14,06,19,6.40
2012,03,14,06,20,6.30
2012,03,14,06,21,6.40
2012,03,14,06,22,2.20
2012,03,14,06,23,3.30
2012,03,14,06,24,4.70
2012,03,14,06,25,3.70
2012,03,14,06,26,6.10
2012,03,14,06,27,4.50
2012,03,14,06,28,8.90
2012,03,14,06,29,14.30
2012,03,14,06,30,11.50
2012,03,14,06,31,9.00
2012,03,14,06,32,7.60
2012,03,14,06,33,10.80
2012,03,14,06,34,6.00
2012,03,14,06,35,13.00
2012,03,14,06,36,8.90
2012,03,14,06,37,14.00
2012,03,14,06,38,3.60
2012,03,14,06,39,5.60
2012,03,14,06,40,8.70
2012,03,14,06,41,9.30
2012,03,14,06,42,10.40
2012,03,14,06,43,7.50
2012,03,14,06,44,7.60
2012,03,14,06,45,8.90
2012,03,14,06,46,15.90
2012,03,14,06,47,12.50
2012,03,14,06,48,13.50
2012,03,14,06,49,24.90
2012,03,14,06,50,15.00
2012,03,14,06,51,16.20
2012,03,14,06,52,18.20
2012,03,14,06,53,21.20
2012,03,14,06,54,12.00
2012,03,14,06,55,15.80
2012,03,14,06,56,7.80
2012,03,14,06,57,9.40
2012,03,14,06,58,13.30
2012,03,14,06,59,23.50
2012,03,14,07,00,23.10
2012,03,14,07,01,13.60
2012,03,14,07,02,19.50
2012,03,14,07,03,16.80
2012,03,14,07,04,15.10
2012,03,14,07,05,13.80
2012,03,14,07,06,16.30
2012,03,14,07,07,16.30
2012,03,14,07,08,10.60
2012,03,14,07,09,8.00
2012,03,14,07,10,6.40
2012,03,14,07,11,7.60
2012,03,14,07,12,7.20
2012,03,14,07,13,10.10
2012,03,14,07,14,11.50
2012,03,14,07,15,14.80
2012,03,14,07,16,11.70
2012,03,14,07,17,14.80
2012,03,14,07,18,12.60
2012,03,14,07,19,12.60
2012,03,14,07,20,7.20
2012,03,14,07,21,7.20
2012,03,14,07,22,12.90
2012,03,14,07,23,7.60
2012,03,14,07,24,18.20
2012,03,14,07,25,16.00
2012,03,14,07,26,12.10
2012,03,14,07,27,15.10
2012,03,14,07,28,8.30
2012,03,14,07,29,10.60
2012,03,14,07,30,18.40
2012,03,14,07,31,19.00
2012,03,14,07,32,12.20
2012,03,14,07,33,6.40
2012,03,14,07,34,8.60
2012,03,14,07,35,17.50
2012,03,14,07,36,19.70
2012,03,14,07,37,25.20
2012,03,14,07,38,17.50
2012,03,14,07,39,18.00
2012,03,14,07,40,9.80
2012,03,14,07,41,13.90
2012,03,14,07,42,15.20
2012,03,14,07,43,17.40
2012,03,14,07,44,15.40
2012,03,14,07,45,15.60
2012,03,14,07,46,27.00
2012,03,14,07,47,24.40
2012,03,14,07,48,19.70
2012,03,14,07,49,14.80
2012,03,14,07,50,19.20
2012,03,14,07,51,24.30
2012,03,14,07,52,21.70
2012,03,14,07,53,24.10
2012,03,14,07,54,22.20
2012,03,14,07,55,10.80
2012,03,14,07,56,14.10
2012,03,14,07,57,19.20
2012,03,14,07,58,14.80
2012,03,14,07,59,17.50
2012,03,14,08,00,16.70
2012,03,14,08,01,13.80
2012,03,14,08,02,29.70
2012,03,14,08,03,19.80
2012,03,14,08,04,14.30
2012,03,14,08,05,14.10
2012,03,14,08,06,10.10
2012,03,14,08,07,9.20
2012,03,14,08,08,21.20
2012,03,14,08,09,14.00
2012,03,14,08,10,18.20
2012,03,14,08,11,20.60
2012,03,14,08,12,16.30
2012,03,14,08,13,25.00
2012,03,14,08,14,20.80
2012,03,14,08,15,15.60
2012,03,14,08,16,9.80
2012,03,14,08,17,7.50
2012,03,14,08,18,13.00
2012,03,14,08,19,15.80
2012,03,14,08,20,18.50
2012,03,14,08,21,14.70
2012,03,14,08,22,19.70
2012,03,14,08,23,21.80
2012,03,14,08,24,16.30
2012,03,14,08,25,8.90
2012,03,14,08,26,11.90
2012,03,14,08,27,5.70
2012,03,14,08,28,6.10
2012,03,14,08,29,9.10
2012,03,14,08,30,13.20
2012,03,14,08,31,17.30
2012,03,14,08,32,18.40
2012,03,14,08,33,13.20
2012,03,14,08,34,16.10
2012,03,14,08,35,9.80
2012,03,14,08,36,11.40
2012,03,14,08,37,15.80
2012,03,14,08,38,9.20
2012,03,14,08,39,17.50
2012,03,14,08,40,24.10
2012,03,14,08,41,15.00
2012,03,14,08,42,12.80
2012,03,14,08,43,24.10
2012,03,14,08,44,14.10
2012,03,14,08,45,13.70
2012,03,14,08,46,11.70
2012,03,14,08,47,18.40
2012,03,14,08,48,22.30
2012,03,14,08,49,19.80
2012,03,14,08,50,15.60
2012,03,14,08,51,17.10
2012,03,14,08,52,13.00
2012,03,14,08,53,20.80
2012,03,14,08,54,27.90
2012,03,14,08,55,14.60
2012,03,14,08,56,13.40
2012,03,14,08,57,24.90
2012,03,14,08,58,10.80
2012,03,14,08,59,14.90
2012,03,14,09,00,15.10
2012,03,14,09,01,22.60
2012,03,14,09,02,16.60
2012,03,14,09,03,22.30
2012,03,14,09,04,23.80
2012,03,14,09,05,18.00
2012,03,14,09,06,22.00
2012,03,14,09,07,17.50
2012,03,14,09,08,21.60
2012,03,14,09,09,20.20
2012,03,14,09,10,23.10
2012,03,14,09,11,21.00
2012,03,14,09,12,26.70
2012,03,14,09,13,20.60
2012,03,14,09,14,20.00
2012,03,14,09,15,26.30
2012,03,14,09,16,25.30
2012,03,14,09,17,28.10
2012,03,14,09,18,15.00
2012,03,14,09,19,15.60
2012,03,14,09,20,23.30
2012,03,14,09,21,20.80
2012,03,14,09,22,24.40
2012,03,14,09,23,17.30
2012,03,14,09,24,14.60
2012,03,14,09,25,15.80
2012,03,14,09,26,22.00
2012,03,14,09,27,22.30
2012,03,14,09,28,16.10
2012,03,14,09,29,15.10
2012,03,14,09,30,20.80
2012,03,14,09,31,28.00
2012,03,14,09,32,23.40
2012,03,14,09,33,26.40
2012,03,14,09,34,16.00
2012,03,14,09,35,16.00
2012,03,14,09,36,25.10
2012,03,14,09,37,24.40
2012,03,14,09,38,20.20
2012,03,14,09,39,15.40
2012,03,14,09,40,19.80
2012,03,14,09,41,15.60
2012,03,14,09,42,19.50
2012,03,14,09,43,20.80
2012,03,14,09,44,18.10
2012,03,14,09,45,19.80
2012,03,14,09,46,25.30
2012,03,14,09,47,27.00
2012,03,14,09,48,25.20
2012,03,14,09,49,24.90
2012,03,14,09,50,26.40
2012,03,14,09,51,20.00
2012,03,14,09,52,24.10
2012,03,14,09,53,26.10
2012,03,14,09,54,28.80
2012,03,14,09,55,22.00
2012,03,14,09,56,23.20
2012,03,14,09,57,28.40
2012,03,14,09,58,17.50
2012,03,14,09,59,17.70
2012,03,14,10,00,15.50
2012,03,14,10,01,22.70
2012,03,14,10,02,28.20
2012,03,14,10,03,26.00
2012,03,14,10,04,21.30
2012,03,14,10,05,22.20
2012,03,14,10,06,17.70
2012,03,14,10,07,8.40
2012,03,14,10,08,21.30
2012,03,14,10,09,23.10
2012,03,14,10,10,17.00
2012,03,14,10,11,17.00
2012,03,14,10,12,24.40
2012,03,14,10,13,28.60
2012,03,14,10,14,21.70
2012,03,14,10,15,17.80
2012,03,14,10,16,22.40
2012,03,14,10,17,26.30
2012,03,14,10,18,19.00
2012,03,14,10,19,27.30
2012,03,14,10,20,21.30
2012,03,14,10,21,22.10
2012,03,14,10,22,26.60
2012,03,14,10,23,18.50
2012,03,14,10,24,20.90
2012,03,14,10,25,15.40
2012,03,14,10,26,18.80
2012,03,14,10,27,23.70
2012,03,14,10,28,14.40
2012,03,14,10,29,14.10
2012,03,14,10,30,24.90
2012,03,14,10,31,18.50
2012,03,14,10,32,12.10
2012,03,14,10,33,15.60
2012,03,14,10,34,14.10
2012,03,14,10,35,20.60
2012,03,14,10,36,20.00
2012,03,14,10,37,13.00
2012,03,14,10,38,18.20
2012,03,14,10,39,18.90
2012,03,14,10,40,18.50
2012,03,14,10,41,18.20
2012,03,14,10,42,22.40
2012,03,14,10,43,17.90
2012,03,14,10,44,22.30
2012,03,14,10,45,22.30
2012,03,14,10,46,22.90
2012,03,14,10,47,25.30
2012,03,14,10,48,17.30
2012,03,14,10,49,17.00
2012,03,14,10,50,22.40
2012,03,14,10,51,20.70
2012,03,14,10,52,23.30
2012,03,14,10,53,23.90
2012,03,14,10,54,24.40
2012,03,14,10,55,17.10
2012,03,14,10,56,27.40
2012,03,14,10,57,20.40
2012,03,14,10,58,26.40
2012,03,14,10,59,16.70
2012,03,14,11,00,23.40
2012,03,14,11,01,18.50
2012,03,14,11,02,22.00
2012,03,14,11,03,24.10
2012,03,14,11,04,18.00
2012,03,14,11,05,21.80
2012,03,14,11,06,27.90
2012,03,14,11,07,23.90
2012,03,14,11,08,22.90
2012,03,14,11,09,23.50
2012,03,14,11,10,18.60
2012,03,14,11,11,10.10
2012,03,14,11,12,6.70
2012,03,14,11,13,8.90
2012,03,14,11,14,13.00
2012,03,14,11,15,15.00
2012,03,14,11,16,7.50
2012,03,14,11,17,13.30
2012,03,14,11,18,17.50
2012,03,14,11,19,18.00
2012,03,14,11,20,15.20
2012,03,14,11,21,15.20
2012,03,14,11,22,7.60
2012,03,14,11,23,14.00
2012,03,14,11,24,15.70
2012,03,14,11,25,16.80
2012,03,14,11,26,23.30
2012,03,14,11,27,18.70
2012,03,14,11,28,17.90
2012,03,14,11,29,16.30
2012,03,14,11,30,15.20
2012,03,14,11,31,16.00
2012,03,14,11,32,13.30
2012,03,14,11,33,12.10
2012,03,14,11,34,16.00
2012,03,14,11,35,15.20
2012,03,14,11,36,20.20
2012,03,14,11,37,18.50
2012,03,14,11,38,23.20
2012,03,14,11,39,15.50
2012,03,14,11,40,12.20
2012,03,14,11,41,16.40
2012,03,14,11,42,15.80
2012,03,14,11,43,15.90
2012,03,14,11,44,7.30
2012,03,14,11,45,12.90
2012,03,14,11,46,10.60
2012,03,14,11,47,14.10
2012,03,14,11,48,14.20
2012,03,14,11,49,15.30
2012,03,14,11,50,17.30
2012,03,14,11,51,15.80
2012,03,14,11,52,14.70
2012,03,14,11,53,9.50
2012,03,14,11,54,13.80
2012,03,14,11,55,11.90
2012,03,14,11,56,10.80
2012,03,14,11,57,16.70
2012,03,14,11,58,11.10
2012,03,14,11,59,17.90
2012,03,14,12,00,23.30
2012,03,14,12,01,19.10
2012,03,14,12,02,13.60
2012,03,14,12,03,14.90
2012,03,14,12,04,18.90
2012,03,14,12,05,17.70
2012,03,14,12,06,12.50
2012,03,14,12,07,6.70
2012,03,14,12,08,11.60
2012,03,14,12,09,12.40
2012,03,14,12,10,17.00
2012,03,14,12,11,11.60
2012,03,14,12,12,12.20
2012,03,14,12,13,12.20
2012,03,14,12,14,10.50
2012,03,14,12,15,16.20
2012,03,14,12,16,16.90
2012,03,14,12,17,10.70
2012,03,14,12,18,15.30
2012,03,14,12,19,13.90
2012,03,14,12,20,16.90
2012,03,14,12,21,11.00
2012,03,14,12,22,12.10
2012,03,14,12,23,15.90
2012,03,14,12,24,14.40
2012,03,14,12,25,19.00
2012,03,14,12,26,11.80
2012,03,14,12,27,15.90
2012,03,14,12,28,12.60
2012,03,14,12,29,15.60
2012,03,14,12,30,13.50
2012,03,14,12,31,16.10
2012,03,14,12,32,13.00
2012,03,14,12,33,11.50
2012,03,14,12,34,17.30
2012,03,14,12,35,15.90
2012,03,14,12,36,11.80
2012,03,14,12,37,18.90
2012,03,14,12,38,19.60
2012,03,14,12,39,12.90
2012,03,14,12,40,10.80
2012,03,14,12,41,8.60
2012,03,14,12,42,11.60
2012,03,14,12,43,13.00
2012,03,14,12,44,14.50
2012,03,14,12,45,11.60
2012,03,14,12,46,15.50
2012,03,14,12,47,13.40
2012,03,14,12,48,12.80
2012,03,14,12,49,16.70
2012,03,14,12,50,19.90
2012,03,14,12,51,20.90
2012,03,14,12,52,19.00
2012,03,14,12,53,11.90
2012,03,14,12,54,14.60
2012,03,14,12,55,13.80
2012,03,14,12,56,16.20
2012,03,14,12,57,8.80
2012,03,14,12,58,11.20
2012,03,14,12,59,20.10
2012,03,14,13,00,18.20
2012,03,14,13,01,14.90
2012,03,14,13,02,12.20
2012,03,14,13,03,8.40
2012,03,14,13,04,6.60
2012,03,14,13,05,6.90
2012,03,14,13,06,20.60
2012,03,14,13,07,12.10
2012,03,14,13,08,8.90
2012,03,14,13,09,12.00
2012,03,14,13,10,13.20
2012,03,14,13,11,17.10
2012,03,14,13,12,12.90
2012,03,14,13,13,15.70
2012,03,14,13,14,5.60
2012,03,14,13,15,10.80
2012,03,14,13,16,10.90
2012,03,14,13,17,13.00
2012,03,14,13,18,13.10
2012,03,14,13,19,11.70
2012,03,14,13,20,15.70
2012,03,14,13,21,14.70
2012,03,14,13,22,15.50
2012,03,14,13,23,14.30
2012,03,14,13,24,13.70
2012,03,14,13,25,13.80
2012,03,14,13,26,8.80
2012,03,14,13,27,13.80
2012,03,14,13,28,14.00
2012,03,14,13,29,12.60
2012,03,14,13,30,12.00
2012,03,14,13,31,9.10
2012,03,14,13,32,12.60
2012,03,14,13,33,10.30
2012,03,14,13,34,13.60
2012,03,14,13,35,15.40
2012,03,14,13,36,9.20
2012,03,14,13,37,13.10
2012,03,14,13,38,15.70
2012,03,14,13,39,13.80
2012,03,14,13,40,9.30
2012,03,14,13,41,10.40
2012,03,14,13,42,8.40
2012,03,14,13,43,6.70
2012,03,14,13,44,7.00
2012,03,14,13,45,7.20
2012,03,14,13,46,5.90
2012,03,14,13,47,7.90
2012,03,14,13,48,5.10
2012,03,14,13,49,12.40
2012,03,14,13,50,9.80
2012,03,14,13,51,13.30
2012,03,14,13,52,13.30
2012,03,14,13,53,13.50
2012,03,14,13,54,12.30
2012,03,14,13,55,6.70
2012,03,14,13,56,9.70
2012,03,14,13,57,11.70
2012,03,14,13,58,8.00
2012,03,14,13,59,4.20
2012,03,14,14,00,5.10
2012,03,14,14,01,9.20
2012,03,14,14,02,13.90
2012,03,14,14,03,9.10
2012,03,14,14,04,8.90
2012,03,14,14,05,15.20
2012,03,14,14,06,10.70
2012,03,14,14,07,4.00
2012,03,14,14,08,5.80
2012,03,14,14,09,8.00
2012,03,14,14,10,7.70
2012,03,14,14,11,4.80
2012,03,14,14,12,12.50
2012,03,14,14,13,10.50
2012,03,14,14,14,5.90
2012,03,14,14,15,9.20
2012,03,14,14,16,5.40
2012,03,14,14,17,5.30
2012,03,14,14,18,5.90
2012,03,14,14,19,8.40
2012,03,14,14,20,9.10
2012,03,14,14,21,6.40
2012,03,14,14,22,6.60
2012,03,14,14,23,5.10
2012,03,14,14,24,6.00
2012,03,14,14,25,11.60
2012,03,14,14,26,9.20
2012,03,14,14,27,7.20
2012,03,14,14,28,9.30
2012,03,14,14,29,10.20
2012,03,14,14,30,8.90
2012,03,14,14,31,7.00
2012,03,14,14,32,4.20
2012,03,14,14,33,4.80
2012,03,14,14,34,2.20
2012,03,14,14,35,7.20
2012,03,14,14,36,8.60
2012,03,14,14,37,11.20
2012,03,14,14,38,9.70
2012,03,14,14,39,7.20
2012,03,14,14,40,6.90
2012,03,14,14,41,5.50
2012,03,14,14,42,2.00
2012,03,14,14,43,2.30
2012,03,14,14,44,0.80
2012,03,14,14,45,2.30
2012,03,14,14,46,5.30
2012,03,14,14,47,9.70
2012,03,14,14,48,4.10
2012,03,14,14,49,4.50
2012,03,14,14,50,2.50
2012,03,14,14,51,3.60
2012,03,14,14,52,1.90
2012,03,14,14,53,3.00
2012,03,14,14,54,0.60
2012,03,14,14,55,2.60
2012,03,14,14,56,4.70
2012,03,14,14,57,3.70
2012,03,14,14,58,0.80
2012,03,14,14,59,4.30
2012,03,14,15,00,2.60
2012,03,14,15,01,2.00
2012,03,14,15,02,3.10
2012,03,14,15,03,3.90
2012,03,14,15,04,3.60
2012,03,14,15,05,1.70
2012,03,14,15,06,4.50
2012,03,14,15,07,3.80
2012,03,14,15,08,6.00
2012,03,14,15,09,7.20
2012,03,14,15,10,7.10
2012,03,14,15,11,1.20
2012,03,14,15,12,3.10
2012,03,14,15,13,5.60
2012,03,14,15,14,5.10
2012,03,14,15,15,2.30
2012,03,14,15,16,4.00
2012,03,14,15,17,2.10
2012,03,14,15,18,5.60
2012,03,14,15,19,2.70
2012,03,14,15,20,2.80
2012,03,14,15,21,5.10
2012,03,14,15,22,4.90
2012,03,14,15,23,4.70
2012,03,14,15,24,5.30
2012,03,14,15,25,4.30
2012,03,14,15,26,2.60
2012,03,14,15,27,4.40
2012,03,14,15,28,5.00
2012,03,14,15,29,3.80
2012,03,14,15,30,4.00
2012,03,14,15,31,4.50
2012,03,14,15,32,4.60
2012,03,14,15,33,5.20
2012,03,14,15,34,4.00
2012,03,14,15,35,2.80
2012,03,14,15,36,2.30
2012,03,14,15,37,1.70
2012,03,14,15,38,1.40
2012,03,14,15,39,3.20
2012,03,14,15,40,3.50
2012,03,14,15,41,2.60
2012,03,14,15,42,3.50
2012,03,14,15,43,4.70
2012,03,14,15,44,1.90
2012,03,14,15,45,1.30
2012,03,14,15,46,1.90
2012,03,14,15,47,1.00
2012,03,14,15,48,1.40
2012,03,14,15,49,1.00
2012,03,14,15,50,1.20
2012,03,14,15,51,0.70
2012,03,14,15,52,0.70
2012,03,14,15,53,4.00
2012,03,14,15,54,0.80
2012,03,14,15,55,4.80
2012,03,14,15,56,3.70
2012,03,14,15,57,5.60
2012,03,14,15,58,4.70
2012,03,14,15,59,3.10
2012,03,14,16,00,2.00
2012,03,14,16,01,3.10
2012,03,14,16,02,1.40
2012,03,14,16,03,5.00
2012,03,14,16,04,3.30
2012,03,14,16,05,4.80
2012,03,14,16,06,4.90
2012,03,14,16,07,0.40
2012,03,14,16,08,3.50
2012,03,14,16,09,4.50
2012,03,14,16,10,3.60
2012,03,14,16,11,1.90
2012,03,14,16,12,0.70
2012,03,14,16,13,2.90
2012,03,14,16,14,3.40
2012,03,14,16,15,5.20
2012,03,14,16,16,3.40
2012,03,14,16,17,1.60
2012,03,14,16,18,1.30
2012,03,14,16,19,4.60
2012,03,14,16,20,3.60
2012,03,14,16,21,5.90
2012,03,14,16,22,1.20
2012,03,14,16,23,5.30
2012,03,14,16,24,0.60
2012,03,14,16,25,3.90
2012,03,14,16,26,6.00
2012,03,14,16,27,5.60
2012,03,14,16,28,3.20
2012,03,14,16,29,0.90
2012,03,14,16,30,5.20
2012,03,14,16,31,4.30
2012,03,14,16,32,1.80
2012,03,14,16,33,1.10
2012,03,14,16,34,0.20
2012,03,14,16,35,0.10
2012,03,14,16,36,1.90
2012,03,14,16,37,3.90
2012,03,14,16,38,2.70
2012,03,14,16,39,1.90
2012,03,14,16,40,0.20
2012,03,14,16,41,0.20
2012,03,14,16,42,1.10
2012,03,14,16,43,1.90
2012,03,14,16,44,2.30
2012,03,14,16,45,2.70
2012,03,14,16,46,3.00
2012,03,14,16,47,2.60
2012,03,14,16,48,1.00
2012,03,14,16,49,0.20
2012,03,14,16,50,1.00
2012,03,14,16,51,1.80
2012,03,14,16,52,1.20
2012,03,14,16,53,1.00
2012,03,14,16,54,4.70
2012,03,14,16,55,3.50
2012,03,14,16,56,1.20
2012,03,14,16,57,1.70
2012,03,14,16,58,2.70
2012,03,14,16,59,1.20
2012,03,14,17,00,1.90
2012,03,14,17,01,3.00
2012,03,14,17,02,3.20
2012,03,14,17,03,4.70
2012,03,14,17,04,5.50
2012,03,14,17,05,3.80
2012,03,14,17,06,1.90
2012,03,14,17,07,1.70
2012,03,14,17,08,3.40
2012,03,14,17,09,5.30
2012,03,14,17,10,2.80
2012,03,14,17,11,0.80
2012,03,14,17,12,1.10
2012,03,14,17,13,0.10
2012,03,14,17,14,0.70
2012,03,14,17,15,2.00
2012,03,14,17,16,4.30
2012,03,14,17,17,1.70
2012,03,14,17,18,4.70
2012,03,14,17,19,2.80
2012,03,14,17,20,3.10
2012,03,14,17,21,4.10
2012,03,14,17,22,2.20
2012,03,14,17,23,4.70
2012,03,14,17,24,2.60
2012,03,14,17,25,1.80
2012,03,14,17,26,4.70
2012,03,14,17,27,2.70
2012,03,14,17,28,3.70
2012,03,14,17,29,3.20
2012,03,14,17,30,3.90
2012,03,14,17,31,5.10
2012,03,14,17,32,3.10
2012,03,14,17,33,2.80
2012,03,14,17,34,3.60
2012,03,14,17,35,3.60
2012,03,14,17,36,2.90
2012,03,14,17,37,3.70
2012,03,14,17,38,2.50
2012,03,14,17,39,3.50
2012,03,14,17,40,2.90
2012,03,14,17,41,2.70
2012,03,14,17,42,1.20
2012,03,14,17,43,2.80
2012,03,14,17,44,1.80
2012,03,14,17,45,2.00
2012,03,14,17,46,2.80
2012,03,14,17,47,3.40
2012,03,14,17,48,2.20